Tracking 30415 objects as of 15-May-2025
HD Live streaming from Space Station
objects crossing your sky now

TIROS 9

Track TIROS 9 now!
10-day predictions
TIROS 9 is classified as:


NORAD ID: 978
Int'l Code: 1965-004A
Perigee: 711.3 km
Apogee: 2,566.1 km
Inclination: 96.4 °
Period: 118.9 minutes
Semi major axis: 8009 km
RCS: 0.8367 m2 (medium)
Launch date: January 22, 1965
Source: United States (US)
Launch site: AIR FORCE EASTERN TEST RANGE (AFETR)
Your satellite tracking list
Your tracking list is empty




NASA's NSSDC Master Catalog

Two Line Element Set (TLE):
1 00978U 65004A   25134.87224598  .00000028  00000-0  50163-4 0  9998
2 00978  96.3980 113.4717 1157827 176.1830 184.9098 12.11102338663390
Source of the keplerian elements: AFSPC